STARLINK-5717, 55618

Orbit data source: Space-Track

STARLINK-5717, 55618 is a payload satellite owned by SpaceX/Seattle (US) in LEO that was launched on Sun, 12 Feb 2023 UTC via an FALCON 9 launch vehicle from the Air Force Eastern Test Range (AFETR). Payload-class satellites include a variety of spacecraft equipped with specific instruments for various scientific and technological missions. These include communications satellites like Starlink; space stations such as the ISS; scientific satellites like the Hubble; Earth observation satellites from companies like Planet Labs, Umbra, and HawkEye 360; GPS; miniature CubeSats for education and research; and military/defense satellites.

Loading next visibility...
Identifier
55618, 2023-020BB
Orbit
LEO
Country
Flag of USUS
Related business
Manufacturer
SpaceX/Seattle
Mission
Operational spacecraft
Bus & Motor
STARLINK, Unknown motor
Mass
305 kg wet, ~290 kg dry
Launch date (UTC)
2023-02-12 (3 years ago)
Launch vehicle
FALCON 9
Launch site
Air Force Eastern Test Range (AFETR)
Object type
Payload
Rocket body
Debris
Shape & HBR
Unknown shape, 10.1 m
Radar Cross Section
Large (>1 m²)

Expand to show TLE details & history
Last TLE update: 19 hours ago

TLE from 19 hours ago
0 STARLINK-5717
1 55618U 23020BB  26061.59277829 -.00001086  00000-0 -65348-4 0  9993
2 55618  43.0046  30.0645 0001395 264.0570  96.0114 15.02541297168006
Epoch: 2026-03-02T14:13Z
TLE epoch observation values (Epoch: 2026-03-02T14:13:36.044Z)
Latitude
0.00003°
Longitude
16.28038°
Altitude
558.943 km
Speed
7.584 km/s
True Right ascension
02h 00m 15s
True Declination
0° 00' 00"
Sunlit
Object was in daylight at epoch
Visualization orbit readout
Latitude
Unknown
Longitude
Unknown
Altitude
Unknown
Speed
Unknown
Apparent Right ascension
Unknown
Apparent Declination
Unknown
Sunlit
N/A
Visualization observer readout
Local Sidereal Time
13:14:30
Azimuth
Unknown
Elevation
Unknown
Doppler factor
Unknown
Orbital elements
Apogee altitude
561.954 km
Perigee altitude
560.018 km
Semi-major axis
6,939.123 km
Eccentricity
0.00014
Inclination
43.0046°
RAAN
30.0645°
Arg. of periapsis
264.057°
True anomaly
96.0273°
Mean anomaly
96.0114°
Eccentric anomaly
96.01935°
Mean motion
3.7548 °/min
Orbital period
95.88 mins
BSTAR
-0.000065348
Loading maneuver chart data...
Computing Atmospheric mass density...
Loading historical data...
Loading historical data...
Loading historical data...
Loading historical data...
Loading historical data...
Loading historical data...
Loading historical data...

Documentation

Showing up to 5 results
|